Lexington Weather

Lexington, Massachusetts, USA

46°F
10/26/2020 6:03am 
  • Lexington Conditions: Light rain, Overcast
  • Temperature: 46.0°F / 7.8°CWarmer 0.9°F than last hour.
  • Dew Point: 41.2°FIncreased 1.5°Fsince last hour.
  • Relative Humidity: 83%Increased 2.0% since last hour.
  • Wind: Wind from SSE SSE 2 mph, 10-min avg: 1 mph, gust: 3 mph
  • Barometer: 30.27 in Steady
  • Visibility: 10 miles
  • Rain Today: 0.00 in
  •   

Regional Weather Roundup
for Boston / Norton, MA

        
000
ASUS41 KBOX 201905
RWRBOX

REGIONAL WEATHER ROUNDUP
NATIONAL WEATHER SERVICE BOSTON/NORTON MA
300 PM EDT TUE OCT 20 2020

NOTE:  "FAIR" INDICATES FEW OR NO CLOUDS BELOW 12,000 FEET WITH NO 
SIGNIFICANT WEATHER AND/OR OBSTRUCTIONS TO VISIBILITY.

MAZALL-202000-
EASTERN MASSACHUSETTS
  
CITY           SKY/WX    TMP DP  RH WIND       PRES   REMARKS
BOSTON         CLOUDY    66  59  78 S7        30.23S                  
BEVERLY        CLOUDY    68  59  73 W5        30.22S                  
LAWRENCE       CLOUDY    67  59  75 W6        30.24F                  
BEDFORD        CLOUDY    68  59  73 S6        30.22S                  
BLUE HILL        N/A     65  59  81 S12       30.23S                  
NORWOOD        CLOUDY    69  59  70 S7        30.23S                  
MARSHFIELD     CLOUDY    66  63  88 SE3       30.23S                  
PLYMOUTH       CLOUDY    63  62  97 SW6       30.24S FOG              
TAUNTON        CLOUDY    67  63  87 VRB5      30.23F FOG              
NEW BEDFORD    CLOUDY    64  62  93 SE3       30.23F FOG              
$$

MAZALL-202000-
CAPE COD AND THE ISLANDS
  
CITY           SKY/WX    TMP DP  RH WIND       PRES   REMARKS
FALMOUTH       CLOUDY    61  61 100 SW6       30.24S FOG              
HYANNIS        LGT RAIN  61  60  97 SW3       30.24S FOG              
CHATHAM        CLOUDY    61  57  87 S6        30.25F                  
PROVINCETOWN   LGT RAIN  63  62  97 S7        30.26R FOG              
NANTUCKET        N/A     63  60  90 S9        30.24F FOG              
MARTHAS VNYRD  CLOUDY    63  62  97 CALM      30.24S                  
$$
 
MAZALL-202000-
CENTRAL AND WESTERN MASSACHUSETTS
  
CITY           SKY/WX    TMP DP  RH WIND       PRES   REMARKS
WORCESTER      CLOUDY    66  58  75 W12       30.24S                  
FITCHBURG      CLOUDY    68  59  73 NW5       30.23S                  
ORANGE         MOSUNNY   68  59  73 S9        30.22F                  
SPRINGFIELD    PTSUNNY   70  59  69 S6        30.20F                  
WESTFIELD      PTSUNNY   68  61  78 SE7       30.21F                  
NORTH ADAMS    CLOUDY    67  56  67 W8        30.21S                  
PITTSFIELD     CLOUDY    65  57  75 SW6       30.22S                  
$$
 
RIZALL-202000-
RHODE ISLAND
  
CITY           SKY/WX    TMP DP  RH WIND       PRES   REMARKS
PROVIDENCE     CLOUDY    63  62  97 SE6       30.24S FOG              
NEWPORT        LGT RAIN  62  62 100 CALM      30.23F VSB 1            
BLOCK ISLAND   FOG       64  63  96 S3        30.23F VSB 1            
SMITHFIELD     CLOUDY    65  63  93 SW5         N/A                   
WESTERLY       LGT RAIN  65  62  90 CALM      30.23F FOG              
$$
 
CTZALL-202000-
CONNECTICUT
  
CITY           SKY/WX    TMP DP  RH WIND       PRES   REMARKS
BRADLEY INTL   PTSUNNY   71  61  70 S7        30.21F                  
HARTFORD       CLOUDY    70  61  73 S3        30.21F                  
BRIDGEPORT     PTSUNNY   68  61  78 SW3       30.22F                  
DANBURY        PTSUNNY   68  61  78 VRB6      30.23F                  
GROTON         CLOUDY    64  62  93 N6        30.22  FOG              
NEW HAVEN      PTSUNNY   69  63  81 W6        30.22F                  
CHESTER        PTSUNNY   68  64  88 SW5       30.23F                  
MERIDEN        CLOUDY    69  61  75 S7        30.22F                  
WILLIMANTIC    CLOUDY    67  62  84 CALM      30.23F                  
OXFORD         CLOUDY    65  62  90 SW6       30.24F                  
$$

MEZ002-015-021-024-NHZ003-005-008-011-012-014-VTZ005-008-202000-
NORTHERN NEW ENGLAND
  
CITY           SKY/WX    TMP DP  RH WIND       PRES   REMARKS
PORTLAND ME    PTSUNNY   61  56  83 S6        30.23S                  
BANGOR ME      LGT RAIN  58  53  84 S5        30.21S                  
CONCORD NH     PTSUNNY   67  55  65 S5        30.21S                  
MANCHESTER NH  PTSUNNY   68  56  65 S8        30.20F                  
NASHUA NH      CLOUDY    67  61  81 S5        30.22F                  
PORTSMOUTH NH  PTSUNNY   64  56  75 S3        30.21F                  
JAFFREY NH     PTSUNNY   66  56  70 SW8       30.23F                  
KEENE NH       CLOUDY    68  57  68 VRB6      30.22S                  
BURLINGTON VT  CLOUDY    53  46  77 N7        30.24S                  
MT. WASHINGTON NOT AVBL                                               
$$

NYZ052-076-202000-
EASTERN NEW YORK
  
CITY           SKY/WX    TMP DP  RH WIND       PRES   REMARKS
ALBANY         CLOUDY    63  58  83 CALM      30.21S                  
NEW YORK CITY  PTSUNNY   70  61  73 NE5       30.21F                  
$$
 
ANZALL-202000-
MARINE OBSERVATIONS
  
STATION/POSITION TIME  TEMP    WIND        PRES    VSBY  WAVE
                       AIR SEA DIR/SP/G                  HT/PER
                 (UTC) (F)     (DEG/KT/KT) (MB)    (MI)  (FT/S)
BOSTON BUOY      1850   59 58  130/  6/  8 1022.5F         2/10
BUZZARDS BAY     1800          120/  7/  8 1024.9F
NANTUCKET SOUND  1850      61  150/  8/ 10   N/A           1/ 7
MASS BAY-STELLWA 1804   59 57  210/  6/  8 1023.2F  1 7/8  3/ 8
ISLE OF SHOALS   1800   58     190/  7/  8 1023.5R
S OF BLOCK IS    1826      63                N/A           3/ 9
$$

......................KEY.........................
  SKY/WX - SKY CONDITION/PRESENT WEATHER
  TMP    - TEMPERATURE IN FAHRENHEIT
  DWPT   - DEWPOINT IN FAHRENHEIT
  RH     - RELATIVE HUMIDITY IN PERCENT
  WIND   - DIRECTION AND SPEED IN MPH
  PRES   - MEAN SEA LEVEL PRESSURE IN INCHES OF HG
  WCI    - WIND CHILL INDEX
  VSB    - VISIBILITY IN MILES
  HX     - HEAT INDEX
  TC     - TEMPERATURE IN CELSIUS
  VRB    - VARIABLE WIND DIRECTION
  N/A    - NOT AVAILABLE
  
      

Other recent Regional Weather Roundups

Mon Oct 26, 5:04am

Mon Oct 26, 4:04am

Mon Oct 26, 3:04am

Mon Oct 26, 2:04am

Mon Oct 26, 1:04am

Mon Oct 26, 12:04am

Sun Oct 25, 11:05pm

Sun Oct 25, 10:04pm

Sun Oct 25, 9:04pm

Sun Oct 25, 8:04pm

Sun Oct 25, 7:04pm

Sun Oct 25, 6:04pm

Sun Oct 25, 5:04pm

Sun Oct 25, 4:05pm

Sun Oct 25, 3:04pm

Sun Oct 25, 2:04pm

Sun Oct 25, 1:04pm

Sun Oct 25, 12:04pm

Sun Oct 25, 11:04am

Sun Oct 25, 10:04am

Sun Oct 25, 9:04am

Sun Oct 25, 8:04am

Sun Oct 25, 7:04am

Sun Oct 25, 6:04am

Sun Oct 25, 5:04am

Sun Oct 25, 4:04am

Sun Oct 25, 3:04am

Sun Oct 25, 2:04am

Sun Oct 25, 1:05am

Sun Oct 25, 12:04am

Sat Oct 24, 11:04pm

Sat Oct 24, 10:04pm

Sat Oct 24, 9:04pm

Sat Oct 24, 8:04pm

Sat Oct 24, 7:04pm

Sat Oct 24, 6:04pm

Sat Oct 24, 5:05pm

Sat Oct 24, 4:04pm

Sat Oct 24, 3:04pm

Sat Oct 24, 2:04pm

Sat Oct 24, 1:05pm

Sat Oct 24, 12:04pm

Sat Oct 24, 11:05am

Sat Oct 24, 10:05am

Sat Oct 24, 9:04am

Sat Oct 24, 8:04am

Sat Oct 24, 7:04am

Sat Oct 24, 6:04am

Sat Oct 24, 5:04am

Sat Oct 24, 4:04am

Sat Oct 24, 3:04am

Sat Oct 24, 2:04am

Sat Oct 24, 1:05am

Sat Oct 24, 12:04am

Fri Oct 23, 11:04pm

Fri Oct 23, 10:04pm

Fri Oct 23, 9:04pm

Fri Oct 23, 8:05pm

Fri Oct 23, 7:04pm

Fri Oct 23, 6:04pm

Fri Oct 23, 5:05pm

Fri Oct 23, 4:04pm

Fri Oct 23, 3:04pm

Fri Oct 23, 2:05pm

Fri Oct 23, 1:04pm

Fri Oct 23, 12:04pm

Fri Oct 23, 11:04am

Fri Oct 23, 10:04am

Fri Oct 23, 9:04am

Fri Oct 23, 8:04am

Fri Oct 23, 7:04am

Fri Oct 23, 6:04am

Fri Oct 23, 5:04am

Fri Oct 23, 4:04am

Fri Oct 23, 3:04am

Fri Oct 23, 2:04am

Fri Oct 23, 1:04am

Fri Oct 23, 12:04am

Thu Oct 22, 11:04pm

Thu Oct 22, 10:04pm

Thu Oct 22, 9:05pm

Thu Oct 22, 8:04pm

Thu Oct 22, 7:05pm

Thu Oct 22, 6:04pm

Thu Oct 22, 5:04pm

Thu Oct 22, 4:05pm

Thu Oct 22, 3:04pm

Thu Oct 22, 2:05pm

Thu Oct 22, 1:04pm

Thu Oct 22, 12:04pm

Thu Oct 22, 11:04am

Thu Oct 22, 10:05am

Thu Oct 22, 9:04am

Thu Oct 22, 8:05am

Thu Oct 22, 7:04am

Thu Oct 22, 6:04am

Thu Oct 22, 5:04am

Thu Oct 22, 4:04am

Thu Oct 22, 3:04am

Thu Oct 22, 2:04am

Thu Oct 22, 1:04am

Thu Oct 22, 12:04am

Wed Oct 21, 11:05pm

Wed Oct 21, 10:04pm

Wed Oct 21, 9:04pm

Wed Oct 21, 8:04pm

Wed Oct 21, 7:04pm

Wed Oct 21, 6:04pm

Wed Oct 21, 5:05pm

Wed Oct 21, 4:04pm

Wed Oct 21, 3:04pm

Wed Oct 21, 2:05pm

Wed Oct 21, 1:04pm

Wed Oct 21, 12:04pm

Wed Oct 21, 11:04am

Wed Oct 21, 10:04am

Wed Oct 21, 9:04am

Wed Oct 21, 8:04am

Wed Oct 21, 7:04am

Wed Oct 21, 6:04am

Wed Oct 21, 5:04am

Wed Oct 21, 4:04am

Wed Oct 21, 3:04am

Wed Oct 21, 2:04am

Wed Oct 21, 1:04am

Wed Oct 21, 12:04am

Tue Oct 20, 11:05pm

Tue Oct 20, 10:04pm

Tue Oct 20, 9:04pm

Tue Oct 20, 8:05pm

Tue Oct 20, 7:04pm

Tue Oct 20, 6:04pm

Tue Oct 20, 5:05pm

Tue Oct 20, 4:04pm

Tue Oct 20, 2:07pm

Tue Oct 20, 1:04pm

Tue Oct 20, 12:04pm

Tue Oct 20, 11:04am

Tue Oct 20, 10:05am

Tue Oct 20, 9:04am

Tue Oct 20, 8:04am

Tue Oct 20, 7:04am

Tue Oct 20, 6:04am

Tue Oct 20, 5:04am

Tue Oct 20, 4:04am

Tue Oct 20, 3:04am

Tue Oct 20, 2:04am

Tue Oct 20, 1:04am

Tue Oct 20, 12:04am

Mon Oct 19, 11:04pm

Mon Oct 19, 10:04pm

Mon Oct 19, 9:04pm

Mon Oct 19, 8:04pm

Mon Oct 19, 7:04pm

Mon Oct 19, 6:04pm

Mon Oct 19, 5:04pm

Mon Oct 19, 4:04pm

Mon Oct 19, 3:04pm

Mon Oct 19, 2:04pm

Mon Oct 19, 1:05pm

Mon Oct 19, 12:04pm

Mon Oct 19, 11:04am

Mon Oct 19, 10:04am

Mon Oct 19, 9:04am

Mon Oct 19, 8:04am

Mon Oct 19, 7:04am

Mon Oct 19, 6:04am

Mon Oct 19, 5:04am

Meta data:

ID: 205878e4-ac6a-47c4-bbe0-520554693b98
Link: https://api.weather.gov/products/205878e4-ac6a-47c4-bbe0-520554693b98